KJ7OGG Weather Reports


time (UTC)temp
C
wind
direction
speed
KPH
gust
KPH
rain 1hr
cm
rain 24hr
cm
rain mn
cm
humidity
%
barometer
mb
20260502130445 22 290 1.6 11.3 0.00 0.00 0.00 27 1009.0
20260502122902 23 16 6.4 11.3 0.00 0.00 0.00 27 1008.6
20260502122357 22 41 3.2 8.0 0.00 0.00 0.00 28 1008.5
20260502121850 22 28 1.6 6.4 0.00 0.00 0.00 29 1008.5
20260502121344 23 25 1.6 4.8 0.00 0.00 0.00 28 1008.4
20260502120839 22 32 0.0 3.2 0.00 0.00 0.00 28 1008.4
20260502120815 22 347 0.0 1.6 0.00 0.00 0.00 28 1008.4
20260502115826 22 51 0.0 1.6 0.00 0.00 0.00 29 1008.4
20260502115321 22 58 0.0 1.6 0.00 0.00 0.00 29 1008.2
20260502115301 22 46 0.0 1.6 0.00 0.00 0.00 29 1008.2
20260502114754 22 46 0.0 1.6 0.00 0.00 0.00 29 1008.3
20260502113803 22 195 0.0 0.0 0.00 0.00 0.00 29 1008.3
20260502113738 22 198 0.0 0.0 0.00 0.00 0.00 29 1008.1
20260502112750 22 167 0.0 1.6 0.00 0.00 0.00 29 1008.1
20260502112244 22 194 0.0 1.6 0.00 0.00 0.00 29 1008.2
20260502111739 22 157 0.0 1.6 0.00 0.00 0.00 29 1008.1
20260502111233 22 169 0.0 1.6 0.00 0.00 0.00 28 1008.1
20260502110726 23 354 0.0 1.6 0.00 0.00 0.00 28 1008.1
20260502110220 23 76 0.0 3.2 0.00 0.00 0.00 26 1008.1
20260502105715 23 59 1.6 6.4 0.00 0.00 0.00 26 1007.9
20260502105208 23 48 3.2 6.4 0.00 0.00 0.00 26 1007.8
20260502104703 23 58 4.8 8.0 0.00 0.00 0.00 26 1007.8
20260502104640 23 46 4.8 11.3 0.00 0.00 0.00 26 1007.8
20260502103651 24 45 4.8 11.3 0.00 0.00 0.00 25 1007.7
20260502103145 24 19 6.4 12.9 0.00 0.00 0.00 24 1007.6
20260502102639 24 356 3.2 12.9 0.00 0.00 0.00 25 1007.6
20260502102132 24 79 1.6 8.0 0.00 0.00 0.00 25 1007.5
20260502101626 24 3 1.6 6.4 0.00 0.00 0.00 25 1007.5
20260502101601 24 321 3.2 6.4 0.00 0.00 0.00 25 1007.5
20260502100615 24 56 4.8 8.0 0.00 0.00 0.00 25 1007.5
20260502100109 23 238 3.2 8.0 0.00 0.00 0.00 26 1007.5
20260502091103 24 256 0.0 6.4 0.00 0.00 0.00 26 1007.2
20260502090603 24 300 0.0 6.4 0.00 0.00 0.00 26 1007.2
20260502071058 25 336 1.6 6.4 0.00 0.00 0.00 26 1006.8
20260502070558 25 305 0.0 6.4 0.00 0.00 0.00 26 1006.8
20260502070058 25 344 1.6 6.4 0.00 0.00 0.00 27 1006.8
20260502070047 25 299 1.6 6.4 0.00 0.00 0.00 27 1006.8
20260502065054 25 351 1.6 4.8 0.00 0.00 0.00 26 1006.8
20260502064555 25 314 0.0 4.8 0.00 0.00 0.00 26 1006.8
20260502064055 25 354 1.6 4.8 0.00 0.00 0.00 26 1006.8
20260502063555 25 344 1.6 6.4 0.00 0.00 0.00 26 1006.8
20260502063057 25 325 1.6 6.4 0.00 0.00 0.00 27 1006.7
20260502062556 25 351 1.6 4.8 0.00 0.00 0.00 27 1006.8
20260502062052 25 335 0.0 4.8 0.00 0.00 0.00 27 1006.8
20260502061554 25 324 0.0 3.2 0.00 0.00 0.00 27 1006.8
20260502061051 26 28 0.0 3.2 0.00 0.00 0.00 25 1006.7
20260502060552 26 157 0.0 3.2 0.00 0.00 0.00 22 1006.7
20260502060050 26 49 0.0 0.0 0.00 0.00 0.00 21 1006.6
20260502060042 26 49 0.0 0.0 0.00 0.00 0.00 21 1006.6
20260502055050 26 49 0.0 0.0 0.00 0.00 0.00 21 1006.5
20260502055031 27 49 0.0 1.6 0.00 0.00 0.00 21 1006.5
20260502054045 27 49 0.0 3.2 0.00 0.00 0.00 19 1006.4
20260502053544 28 49 0.0 3.2 0.00 0.00 0.00 19 1006.4
20260502053538 28 23 1.6 4.8 0.00 0.00 0.00 19 1006.3
20260502052544 28 21 1.6 8.0 0.00 0.00 0.00 18 1006.2
20260502052044 28 60 3.2 8.0 0.00 0.00 0.00 18 1006.2
20260502052032 28 48 3.2 9.7 0.00 0.00 0.00 17 1006.2
20260502051045 28 72 3.2 9.7 0.00 0.00 0.00 17 1006.2
20260502050546 28 35 3.2 9.7 0.00 0.00 0.00 17 1006.3
20260502050045 28 63 4.8 9.7 0.00 0.00 0.00 17 1006.1
20260502045544 28 60 3.2 8.0 0.00 0.00 0.00 17 1006.1
20260502045044 28 51 1.6 8.0 0.00 0.00 0.00 17 1006.2
20260502044545 28 51 0.0 6.4 0.00 0.00 0.00 18 1006.2
20260502044044 28 83 0.0 3.2 0.00 0.00 0.00 18 1006.2
20260502043546 28 73 1.6 8.0 0.00 0.00 0.00 18 1006.2
20260502043046 28 108 1.6 8.0 0.00 0.00 0.00 19 1006.2
20260502042544 28 109 0.0 4.8 0.00 0.00 0.00 19 1006.1
20260502042044 28 60 0.0 3.2 0.00 0.00 0.00 20 1006.1
20260502041539 28 105 0.0 4.8 0.00 0.00 0.00 20 1006.1
20260502041033 27 103 0.0 4.8 0.00 0.00 0.00 21 1006.0
20260502040527 27 102 0.0 3.2 0.00 0.00 0.00 21 1005.9
20260502040021 27 102 0.0 3.2 0.00 0.00 0.00 20 1005.9
20260502035515 27 94 0.0 3.2 0.00 0.00 0.00 20 1005.8
20260502035009 27 116 0.0 1.6 0.00 0.00 0.00 21 1005.7
20260502034503 27 145 0.0 6.4 0.00 0.00 0.00 20 1005.7
20260502033957 28 124 0.0 6.4 0.00 0.00 0.00 20 1005.6
20260502033451 28 123 1.6 6.4 0.00 0.00 0.00 20 1005.5
20260502032945 28 135 0.0 6.4 0.00 0.00 0.00 20 1005.4
20260502032439 28 131 0.0 4.8 0.00 0.00 0.00 20 1005.4
20260502031932 28 98 0.0 4.8 0.00 0.00 0.00 20 1005.2
20260502031913 28 116 0.0 3.2 0.00 0.00 0.00 20 1005.2
20260502030918 28 119 0.0 4.8 0.00 0.00 0.00 20 1005.2
20260502030412 28 121 0.0 4.8 0.00 0.00 0.00 20 1005.1
20260502025907 28 176 0.0 4.8 0.00 0.00 0.00 20 1005.0
20260502025401 28 155 0.0 4.8 0.00 0.00 0.00 20 1005.1
20260502025335 28 120 0.0 4.8 0.00 0.00 0.00 20 1005.0
20260502024349 28 117 0.0 8.0 0.00 0.00 0.00 20 1005.0
20260502023842 28 166 0.0 8.0 0.00 0.00 0.00 20 1004.9
20260502023336 28 164 0.0 4.8 0.00 0.00 0.00 20 1004.7
20260502022831 28 116 0.0 4.8 0.00 0.00 0.00 20 1004.7
20260502022325 28 132 0.0 3.2 0.00 0.00 0.00 20 1004.6
20260502022308 28 137 0.0 6.4 0.00 0.00 0.00 20 1004.5
20260502021313 29 122 0.0 4.8 0.00 0.00 0.00 21 1004.6
20260502020807 29 159 0.0 3.2 0.00 0.00 0.00 21 1004.6
20260502020757 29 144 0.0 4.8 0.00 0.00 0.00 20 1004.5
20260502015755 29 254 0.0 4.8 0.00 0.00 0.00 20 1004.4
20260502015249 29 205 1.6 4.8 0.00 0.00 0.00 20 1004.5
20260502014743 30 127 1.6 4.8 0.00 0.00 0.00 21 1004.4
20260502014237 30 168 1.6 6.4 0.00 0.00 0.00 21 1004.4
20260502013731 30 143 1.6 6.4 0.00 0.00 0.00 20 1004.4
20260502013224 30 143 0.0 3.2 0.00 0.00 0.00 20 1004.5
20260502012719 30 203 0.0 3.2 0.00 0.00 0.00 20 1004.5
20260502012213 31 124 0.0 3.2 0.00 0.00 0.00 20 1004.5
20260502012159 31 192 0.0 3.2 0.00 0.00 0.00 20 1004.5
20260502011202 31 188 0.0 4.8 0.00 0.00 0.00 19 1004.5
20260502010655 31 191 1.6 4.8 0.00 0.00 0.00 20 1004.5
20260502010148 31 179 1.6 8.0 0.00 0.00 0.00 19 1004.5
20260502005643 31 197 1.6 8.0 0.00 0.00 0.00 20 1004.6
20260502005137 31 182 1.6 6.4 0.00 0.00 0.00 20 1004.5
20260502004632 31 172 1.6 6.4 0.00 0.00 0.00 19 1004.5
20260502004124 31 167 1.6 6.4 0.00 0.00 0.00 19 1004.6
20260502004105 31 172 1.6 8.0 0.00 0.00 0.00 19 1004.5
20260502003600 32 212 1.6 8.0 0.00 0.00 0.00 19 1004.5
20260502003051 32 184 1.6 8.0 0.00 0.00 0.00 19 1004.6
20260502002553 32 99 1.6 6.4 0.00 0.00 0.00 19 1004.5
20260502001554 32 159 1.6 8.0 0.00 0.00 0.00 19 1004.5
20260502001049 32 191 1.6 9.7 0.00 0.00 0.00 19 1004.6
20260502000542 32 187 1.6 9.7 0.00 0.00 0.00 19 1004.7
20260502000536 32 120 1.6 9.7 0.00 0.00 0.00 18 1004.7
20260501235530 32 141 1.6 19.3 0.00 0.00 0.00 19 1004.7
20260501235517 32 252 1.6 19.3 0.00 0.00 0.00 18 1004.7
20260501234519 32 208 3.2 19.3 0.00 0.00 0.00 19 1004.7
20260501234013 32 160 1.6 19.3 0.00 0.00 0.00 19 1004.7
20260501233507 32 219 1.6 8.0 0.00 0.00 0.00 18 1004.7
20260501233000 32 158 1.6 8.0 0.00 0.00 0.00 18 1004.9
20260501232939 32 89 3.2 8.0 0.00 0.00 0.00 18 1004.9
20260501231948 32 121 3.2 8.0 0.00 0.00 0.00 17 1005.0
20260501231928 32 188 3.2 9.7 0.00 0.00 0.00 18 1004.9
20260501231421 33 269 3.2 9.7 0.00 0.00 0.00 18 1005.0
20260501230925 33 206 1.6 8.0 0.00 0.00 0.00 18 1005.0
20260501230411 33 185 1.6 8.0 0.00 0.00 0.00 19 1005.0
20260501225419 33 94 1.6 8.0 0.00 0.00 0.00 18 1005.1
20260501224913 33 165 1.6 11.3 0.00 0.00 0.00 19 1005.2
20260501224852 33 193 3.2 11.3 0.00 0.00 0.00 19 1005.2
20260501224346 33 185 3.2 11.3 0.00 0.00 0.00 20 1005.3
20260501223355 32 148 3.2 14.5 0.00 0.00 0.00 20 1005.3
20260501222850 33 212 3.2 14.5 0.00 0.00 0.00 20 1005.5
20260501222343 33 194 3.2 20.9 0.00 0.00 0.00 19 1005.5
20260501221836 33 109 1.6 12.9 0.00 0.00 0.00 20 1005.6
20260501221337 33 217 3.2 12.9 0.00 0.00 0.00 20 1005.6
20260501220836 32 173 3.2 11.3 0.00 0.00 0.00 20 1005.6
20260501220431 33 218 3.2 9.7 0.00 0.00 0.00 20 1005.7
20260501215337 33 184 3.2 9.7 0.00 0.00 0.00 20 1005.8
20260501214835 33 169 1.6 9.7 0.00 0.00 0.00 20 1005.9
20260501214821 33 201 1.6 8.0 0.00 0.00 0.00 20 1005.9
20260501213834 33 120 1.6 8.0 0.00 0.00 0.00 19 1006.0
20260501213822 33 172 1.6 8.0 0.00 0.00 0.00 19 1006.2
20260501213321 33 201 1.6 8.0 0.00 0.00 0.00 19 1006.3
20260501212334 33 136 1.6 6.4 0.00 0.00 0.00 19 1006.4
20260501211835 32 195 0.0 6.4 0.00 0.00 0.00 20 1006.4
20260501211330 32 205 1.6 6.4 0.00 0.00 0.00 21 1006.5
20260501211315 32 211 1.6 8.0 0.00 0.00 0.00 20 1006.6
20260501210330 32 204 3.2 12.9 0.00 0.00 0.00 20 1006.7
20260501205831 32 189 4.8 12.9 0.00 0.00 0.00 21 1006.7
20260501205329 32 210 3.2 9.7 0.00 0.00 0.00 20 1006.8
20260501204829 32 112 1.6 9.7 0.00 0.00 0.00 20 1006.9
20260501204330 32 211 1.6 8.0 0.00 0.00 0.00 20 1006.9
20260501203830 32 181 1.6 6.4 0.00 0.00 0.00 20 1007.0
20260501203331 33 184 1.6 6.4 0.00 0.00 0.00 20 1007.0
20260501202831 33 229 1.6 6.4 0.00 0.00 0.00 20 1007.2
20260501202331 33 169 1.6 6.4 0.00 0.00 0.00 20 1007.2
20260501201830 32 192 1.6 6.4 0.00 0.00 0.00 20 1007.2
20260501201331 32 117 1.6 6.4 0.00 0.00 0.00 21 1007.2
20260501200829 32 184 1.6 8.0 0.00 0.00 0.00 22 1007.2
20260501200330 32 228 1.6 8.0 0.00 0.00 0.00 21 1007.3
20260501195829 32 199 1.6 8.0 0.00 0.00 0.00 21 1007.3
20260501195327 31 316 1.6 8.0 0.00 0.00 0.00 22 1007.3
20260501194828 31 169 1.6 11.3 0.00 0.00 0.00 22 1007.4
20260501194322 31 165 1.6 6.4 0.00 0.00 0.00 23 1007.4
20260501193815 31 227 1.6 6.4 0.00 0.00 0.00 23 1007.5
20260501193310 31 204 1.6 6.4 0.00 0.00 0.00 23 1007.6
20260501192808 31 224 1.6 6.4 0.00 0.00 0.00 23 1007.7
20260501192309 32 101 1.6 6.4 0.00 0.00 0.00 22 1007.7
20260501191808 31 192 1.6 6.4 0.00 0.00 0.00 23 1007.8
20260501191307 31 238 1.6 6.4 0.00 0.00 0.00 23 1007.8
20260501190809 31 189 1.6 8.0 0.00 0.00 0.00 24 1007.9
20260501190307 30 125 1.6 11.3 0.00 0.00 0.00 25 1007.8
20260501190252 30 317 1.6 11.3 0.00 0.00 0.00 26 1007.9
20260501185306 30 217 3.2 11.3 0.00 0.00 0.00 25 1007.9
20260501184805 30 144 1.6 11.3 0.00 0.00 0.00 26 1008.1
20260501184305 31 195 0.0 6.4 0.00 0.00 0.00 24 1008.2
20260501183807 31 59 0.0 8.0 0.00 0.00 0.00 25 1008.2
20260501183303 30 217 1.6 8.0 0.00 0.00 0.00 25 1008.3
20260501183250 30 188 1.6 8.0 0.00 0.00 0.00 25 1008.4
20260501182306 30 249 1.6 8.0 0.00 0.00 0.00 25 1008.5
20260501181803 31 179 1.6 6.4 0.00 0.00 0.00 25 1008.5
20260501181303 30 212 1.6 4.8 0.00 0.00 0.00 25 1008.7
20260501181250 30 187 1.6 4.8 0.00 0.00 0.00 25 1008.8
20260501180259 31 117 0.0 4.8 0.00 0.00 0.00 25 1008.9
20260501175752 31 155 0.0 4.8 0.00 0.00 0.00 26 1008.9
20260501175246 30 123 0.0 4.8 0.00 0.00 0.00 27 1008.9
20260501174740 29 207 1.6 4.8 0.00 0.00 0.00 28 1009.0
20260501174235 28 177 3.2 9.7 0.00 0.00 0.00 29 1009.1
20260501173729 27 289 3.2 9.7 0.00 0.00 0.00 29 1009.1
20260501173222 29 110 0.0 4.8 0.00 0.00 0.00 27 1009.1
20260501172716 29 209 0.0 4.8 0.00 0.00 0.00 27 1009.1
20260501172656 30 198 0.0 6.4 0.00 0.00 0.00 27 1009.1
20260501171704 30 259 1.6 6.4 0.00 0.00 0.00 27 1009.2
20260501171159 29 89 1.6 6.4 0.00 0.00 0.00 28 1009.2
20260501170652 28 172 1.6 6.4 0.00 0.00 0.00 29 1009.2
20260501170147 28 217 1.6 4.8 0.00 0.00 0.00 29 1009.1
20260501165641 28 193 0.0 6.4 0.00 0.00 0.00 29 1009.1
20260501165134 28 226 1.6 6.4 0.00 0.00 0.00 30 1009.2
20260501164628 28 205 1.6 6.4 0.00 0.00 0.00 29 1009.1
20260501164122 28 352 1.6 6.4 0.00 0.00 0.00 30 1009.1
20260501163617 28 213 0.0 6.4 0.00 0.00 0.00 30 1009.2
20260501163111 28 160 0.0 6.4 0.00 0.00 0.00 30 1009.2
20260501162605 27 316 0.0 6.4 0.00 0.00 0.00 30 1009.2
20260501162059 27 293 0.0 6.4 0.00 0.00 0.00 31 1009.1
20260501161553 27 229 1.6 6.4 0.00 0.00 0.00 33 1009.1
20260501161046 26 219 1.6 6.4 0.00 0.00 0.00 33 1009.2
20260501160541 26 296 0.0 4.8 0.00 0.00 0.00 33 1009.1
20260501160034 27 323 0.0 1.6 0.00 0.00 0.00 33 1009.1
20260501160012 27 225 0.0 1.6 0.00 0.00 0.00 33 1009.0
20260501155027 27 125 0.0 3.2 0.00 0.00 0.00 33 1009.0
20260501155014 26 164 0.0 4.8 0.00 0.00 0.00 34 1009.0
20260501154025 26 84 0.0 4.8 0.00 0.00 0.00 33 1009.0
20260501153524 26 153 0.0 4.8 0.00 0.00 0.00 35 1008.9
20260501153025 25 262 0.0 4.8 0.00 0.00 0.00 36 1008.8
20260501152959 24 352 1.6 6.4 0.00 0.00 0.00 38 1008.8
20260501152021 23 20 1.6 8.0 0.00 0.00 0.00 39 1008.8
20260501151521 23 32 1.6 8.0 0.00 0.00 0.00 39 1008.7
20260501151022 23 3 3.2 11.3 0.00 0.00 0.00 39 1008.6
20260501150519 23 36 4.8 11.3 0.00 0.00 0.00 40 1008.5
20260501150022 23 27 3.2 11.3 0.00 0.00 0.00 40 1008.6
20260501150008 22 302 3.2 9.7 0.00 0.00 0.00 41 1008.4
20260501145019 22 1 4.8 12.9 0.00 0.00 0.00 41 1008.4
20260501144520 22 106 4.8 12.9 0.00 0.00 0.00 42 1008.5
20260501144017 22 319 4.8 12.9 0.00 0.00 0.00 41 1008.4
20260501143516 22 11 6.4 14.5 0.00 0.00 0.00 42 1008.4
20260501143017 22 69 6.4 14.5 0.00 0.00 0.00 41 1008.3